Regional Weather Roundup
Issued by NWS

Home | Current Version | Previous Version | Graphics & Text | Print | Product List | Glossary On
Versions: 1 2 3 4 5 6 7 8 9 10 11 12 13 14 15 16 17 18 19 20 21 22 23 24 25 26 27 28 29 30 31 32 33 34 35 36 37 38 39 40 41 42 43 44 45 46 47 48 49 50
653
ASUS43 KLMK 042302
RWRKY
KENTUCKY REGIONAL WEATHER ROUNDUP
NATIONAL WEATHER SERVICE LOUISVILLE KY
600 PM EST SUN DEC 04 2016

NOTE "FAIR" INDICATES FEW OR NO CLOUDS BELOW 12,000 FEET
WITH NO SIGNIFICANT WEATHER AND/OR OBSTRUCTIONS TO VISIBILITY.

KYZ001>023-026-027-061>063-070>075-050000-
WESTERN AND SOUTH CENTRAL KENTUCKY

CITY           SKY/WX    TMP DP  RH WIND       PRES   REMARKS
PADUCAH        CLOUDY    45  41  86 W7        29.96S
HENDERSON      CLOUDY    45  39  81 W7        29.94R
OWENSBORO      LGT RAIN  45  44  97 SW7       29.94S
HOPKINSVILLE   CLOUDY    45  45 100 W5        29.95S
BOWLING GREEN  CLOUDY    48  46  93 SW6       29.95S FOG
GLASGOW        NOT AVBL
$$

KYZ024-025-028>034-038-045-046-053-050000-
NORTH CENTRAL KENTUCKY

CITY           SKY/WX    TMP DP  RH WIND       PRES   REMARKS
LOUISVILLE/SDF LGT RAIN  47  44  90 S6        29.91F FOG
LOUISVILLE/LOU LGT RAIN  46  44  93 S3        29.92S FOG
FORT KNOX      DRIZZLE   45  45  99 SW5       29.90S FOG
$$

KYZ035>037-039>044-047>052-055>060-089>105-050000-
NORTHEAST KENTUCKY

CITY           SKY/WX    TMP DP  RH WIND       PRES   REMARKS
LEXINGTON      LGT RAIN  45  43  93 S7        29.92R FOG
COVINGTON      LGT RAIN  40  39  97 E6        29.90F FOG
FRANKFORT      CLOUDY    45  43  93 S5        29.91S FOG
$$

KYZ054-064>069-076>088-106>120-050000-
SOUTHEAST KENTUCKY

CITY           SKY/WX    TMP DP  RH WIND       PRES   REMARKS
JACKSON        CLOUDY    43  41  93 CALM      29.91S
LONDON         LGT RAIN  45  43  93 S3        29.91F FOG
SOMERSET       DRIZZLE   43  43 100 CALM      29.95R
MIDDLESBORO    CLOUDY    45  45  99 CALM      29.96S FOG
MONTICELLO     LGT RAIN  46  45  96 W10       29.95R FOG
$$





USA.gov is the U.S. government's official web portal to all federal, state and local government web resources and services.